Showing default

OT-FOREST-19 PATADASTRA, 69001

Orbit data source: Space-Track

OT-FOREST-19 PATADASTRA, 69001 is a German payload satellite in SSO that was launched on Sun, 03 May 2026 UTC via an FALCON 9 launch vehicle from the Air Force Western Test Range (AFWTR). Payload-class satellites include a variety of spacecraft equipped with specific instruments for various scientific and technological missions. These include communications satellites like Starlink; space stations such as the ISS; scientific satellites like the Hubble; Earth observation satellites from companies like Planet Labs, Umbra, and HawkEye 360; GPS; miniature CubeSats for education and research; and military/defense satellites.

Loading next visibility...
Identifier
69001, 2026-100X
Orbit
SSO
Country
Flag of DEDE / GER
Related business
Manufacturer
OroraTech
Mission
Operational Commercial Imaging
Bus & Motor
CUBESAT 8U, Unknown motor
Mass
~15 kg wet, ~15 kg dry
Launch date (UTC)
2026-05-03 (5 months ago)
Launch vehicle
FALCON 9
Launch site
Air Force Western Test Range (AFWTR)
Object type
Payload
Rocket body
Debris
Shape & HBR
Box, 0.2 m
Radar Cross Section
0.100 m², Medium (>0.1 m² and < 1m²)

Expand to show TLE details & history
Last TLE update: 8 hours ago

TLE from 8 hours ago
0 OT-FOREST-19 PATADASTRA
1 69001U 26100X   26266.18806856  .00001067  00000-0  10825-3 0  9992
2 69001  97.7234 161.9551 0002649  66.5177 293.6320 14.92931112 21316
Epoch: 2026-09-23T04:30Z
TLE epoch observation values (Epoch: 2026-09-23T04:30:49.123Z)
Latitude
-0.0001°
Longitude
92.20765°
Altitude
591.107 km
Speed
7.565 km/s
True Right ascension
10h 47m 49s
True Declination
0° 00' 00"
Sunlit
Object was in daylight at epoch
Visualization orbit readout
Latitude
Unknown
Longitude
Unknown
Altitude
Unknown
Speed
Unknown
Apparent Right ascension
Unknown
Apparent Declination
Unknown
Sunlit
N/A
Visualization observer readout
Local Sidereal Time
05:23:28
Azimuth
Unknown
Elevation
Unknown
Doppler factor
Unknown
Orbital elements
Apogee altitude
587.662 km
Perigee altitude
583.973 km
Semi-major axis
6,963.955 km
Eccentricity
0.00026
Inclination
97.7234°
RAAN
161.9551°
Arg. of periapsis
66.5177°
True anomaly
293.60419°
Mean anomaly
293.632°
Eccentric anomaly
293.61809°
Mean motion
3.73473 °/min
Orbital period
96.39 mins
BSTAR
0.00010825
Loading maneuver chart data...
Computing Atmospheric mass density...
Loading historical data...
Loading historical data...
Loading historical data...
Loading historical data...
Loading historical data...
Loading historical data...
Loading historical data...

Documentation

Showing up to 5 results
|